Location: Brusselsch Zeekanaal
(50.8667°N, 4.3667°E)
Time: 09:35:06
(UTC+00:00)

SL-16 R/B - Pass Details

Date: 08 November 2025
Orbit: 841 x 844 km, 71.0° (Epoch: 12 December)

Event Time Altitude Azimuth Distance (km) Brightness Sun altitude
Exits shadow 02:24:14 20° 38° (NE) 1,864 4.4 -40.8°
Drops below altitude 10° 02:25:54 10° 34° (NE) 2,475 5.2 -40.5°
Sets 02:28:23 0° 32° (NNE) 3,414 6.0 -40.2°
